Location: Unspecified
(35.9148°N, 0.0000°E)
Time: 11:25:23
(UTC+00:00)

ISS - Visible Passes

Search period start: 20 May 2019 00:00
Search period end: 30 May 2019 00:00
Orbit: 407 x 410 km, 51.6° (Epoch: 20 May)

Date Brightness Start Highest point End Pass type
(mag) Time Alt. Az. Time Alt. Az. Time Alt. Az.
20 May -2.0 02:29:14 10° NNW 02:32:16 33° NE 02:35:17 10° ESE visible
20 May -2.5 04:06:09 10° W 04:08:40 20° SW 04:11:11 10° S visible
20 May -0.8 20:45:20 10° WNW 20:47:46 19° NNW 20:50:12 10° NNE visible
21 May0.101:46:07E01:46:07E01:37:06NNWvisible
21 May -2.5 03:19:20 25° S 03:19:20 25° S 03:21:02 10° SSE visible
21 May -1.7 19:53:45 10° W 19:56:42 30° NW 19:59:40 10° NNE visible
22 May -0.3 20:42:08 10° NW 20:42:53 11° NNW 20:43:37 10° N visible
23 May -0.7 19:49:39 10° WNW 19:51:40 15° NNW 19:53:43 10° N visible
27 May -0.3 22:55:10 10° NNW 22:55:36 12° NNW 22:55:36 12° NNW visible
28 May -0.9 22:04:46 10° N 22:06:15 13° NNE 22:06:15 13° NNE visible
29 May -0.5 22:49:16 10° NW 22:49:39 13° NW 22:49:39 13° NW visible
